Погода в Новом Буянове

Россия / Чувашская Республика     55°33′49″N   47°47′55″E
темп.,
°C
ветер,
м/с
пор.,
м/с
влажн.,
%
обл.,
%
осадки,
мм/ч
давл.,
гПа
погр.,
м
16 сентября, чт
чт1600:00+4з347678 0.0 100962
03:00+7зсз496562 0.0 1009454
06:00+6сз596572 0.0 1010510
09:00+8ссз6858100 0.0 10111302
12:00+8сз6763100 0.0 10121171
15:00+8сз6863100 0.1 10131129
18:00+7ссз6973100 0.0 1014914
21:00+7сз51074100 0.0 1014639
17 сентября, пт
пт1700:00+7сз5972100 0.0 1015419
03:00+6сз4872100 0.0 1015408
06:00+6сз4873100 0.0 1015424
09:00+8сз575480 0.1 10151515
12:00+9сз5647100 0.2 10161652
15:00+10сз564799 0.3 10151648
18:00+8ссз575796 0.1 1016836
21:00+4сз366713 0.1 101793
18 сентября, сб
сб1800:00+3зсз38778 0.0 1018168
03:00+2сз38935 0.0 1018178
06:00+1сз499761 0.0 1020269
09:00+4ссз5886100 0.0 1021724
12:00+8ссз565699 0.1 10211277
15:00+8ссз675294 0.2 10221234
18:00+6ссз5750100 0.0 1023553
21:00+6ссз3752100 0.0 1023305
19 сентября, вс
вс1900:00+5ссз486482 0.0 1024531
03:000с35885 0.0 102584
06:000сз239174 0.0 102665
09:00+5сз455599 0.0 1026725
12:00+8сз4444100 0.0 10251147
15:00+9сз344398 0.0 10251132
18:00+5ссз2258100 0.0 102510
21:00+4сз116595 0.0 102510
20 сентября, пн
пн2000:00+4всв1168100 0.0 102612
03:00+3в3673100 0.0 1026151
06:00+3в3876100 0.0 1026269
09:00+5в5866100 0.0 1026434
12:00+8в5655100 0.0 1026930
15:00+8в5757100 0.0 1025850
18:00+6вюв4876100 0.9 1026771
21:00+6в51084100 1.9 1026619